International Skating Union - Official Site

Essent ISU European Speed Skating Championships 2014
January 11-12, 2014

Draw | Lap Times | Index | Classification

Referee: Karl  SKOOG  (SWE)
Starter: John Magne  ELIASSEN  (NOR)
StartTime: EndTime: Air Temp: Ice Temp: Humidity:
15:04 15:36 16.4℃ -10℃ 15.8%
Result 5000m Ladies
Rankings as of Jan 12 2014 3:37PM
Rank: No.: Name: Nation: Time: Behind: Points:
1 5 Martina  Sábliková CZE CZE 6:58.13200m - 20.98 - (20.9)
600m - 53.59 - (32.6)
1000m - 1:26.37 - (32.7)
1400m - 1:59.91 - (33.5)
1800m - 2:33.11 - (33.2)
2200m - 3:06.27 - (33.1)
2600m - 3:39.54 - (33.2)
3000m - 4:12.81 - (33.2)
3400m - 4:46.00 - (33.1)
3800m - 5:19.13 - (33.1)
4200m - 5:52.21 - (33.0)
4600m - 6:25.32 - (33.1)
5000m - 6:58.13 - (32.8)
41.813
2 15 Yvonne  Nauta NED NED 6:59.32200m - 20.28 - (20.2)
600m - 52.19 - (31.9)
1000m - 1:24.81 - (32.6)
1400m - 1:57.64 - (32.8)
1800m - 2:30.67 - (33.0)
2200m - 3:03.60 - (32.9)
2600m - 3:36.92 - (33.3)
3000m - 4:10.21 - (33.2)
3400m - 4:43.77 - (33.5)
3800m - 5:17.36 - (33.5)
4200m - 5:50.88 - (33.5)
4600m - 6:24.75 - (33.8)
5000m - 6:59.32 - (34.5)
1.19 41.932
3 18 Ireen  Wüst NED NED 7:03.40200m - 19.97 - (19.9)
600m - 52.11 - (32.1)
1000m - 1:24.60 - (32.5)
1400m - 1:57.77 - (33.1)
1800m - 2:30.30 - (32.5)
2200m - 3:03.68 - (33.3)
2600m - 3:36.96 - (33.2)
3000m - 4:10.75 - (33.8)
3400m - 4:44.32 - (33.5)
3800m - 5:18.75 - (34.4)
4200m - 5:53.14 - (34.3)
4600m - 6:27.97 - (34.8)
5000m - 7:03.40 - (35.4)
5.27 42.340
4 11 Claudia  Pechstein GER GER 7:05.44200m - 21.18 - (21.1)
600m - 55.39 - (34.2)
1000m - 1:29.31 - (33.9)
1400m - 2:02.92 - (33.6)
1800m - 2:36.26 - (33.3)
2200m - 3:09.79 - (33.5)
2600m - 3:43.30 - (33.5)
3000m - 4:16.85 - (33.5)
3400m - 4:50.51 - (33.6)
3800m - 5:24.35 - (33.8)
4200m - 5:58.29 - (33.9)
4600m - 6:32.23 - (33.9)
5000m - 7:05.44 - (33.2)
7.31 42.544
5 16 Diane  Valkenburg NED NED 7:09.41200m - 21.68 - (21.6)
600m - 57.08 - (35.4)
1000m - 1:31.96 - (34.8)
1400m - 2:06.01 - (34.0)
1800m - 2:39.51 - (33.5)
2200m - 3:13.31 - (33.8)
2600m - 3:47.23 - (33.9)
3000m - 4:20.82 - (33.5)
3400m - 4:54.31 - (33.4)
3800m - 5:27.85 - (33.5)
4200m - 6:01.43 - (33.5)
4600m - 6:35.20 - (33.7)
5000m - 7:09.41 - (34.2)
11.28 42.941
6 29 Olga  Graf RUS RUS 7:12.57200m - 21.27 - (21.2)
600m - 55.25 - (33.9)
1000m - 1:29.43 - (34.1)
1400m - 2:02.85 - (33.4)
1800m - 2:36.30 - (33.4)
2200m - 3:09.90 - (33.6)
2600m - 3:44.20 - (34.3)
3000m - 4:18.89 - (34.6)
3400m - 4:53.53 - (34.6)
3800m - 5:28.39 - (34.8)
4200m - 6:02.91 - (34.5)
4600m - 6:37.61 - (34.7)
5000m - 7:12.57 - (34.9)
14.44 43.257
7 14 Marije  Joling NED NED 7:17.43200m - 20.95 - (20.9)
600m - 53.53 - (32.5)
1000m - 1:26.86 - (33.3)
1400m - 2:00.33 - (33.4)
1800m - 2:34.65 - (34.3)
2200m - 3:09.45 - (34.8)
2600m - 3:44.77 - (35.3)
3000m - 4:20.10 - (35.3)
3400m - 4:55.33 - (35.2)
3800m - 5:31.03 - (35.7)
4200m - 6:06.82 - (35.7)
4600m - 6:42.26 - (35.4)
5000m - 7:17.43 - (35.1)
19.30 43.743
8 31 Yuliya  Skokova RUS RUS 7:22.09200m - 21.28 - (21.2)
600m - 56.27 - (34.9)
1000m - 1:31.43 - (35.1)
1400m - 2:05.80 - (34.3)
1800m - 2:40.12 - (34.3)
2200m - 3:14.20 - (34.0)
2600m - 3:48.14 - (33.9)
3000m - 4:22.40 - (34.2)
3400m - 4:56.81 - (34.4)
3800m - 5:31.78 - (34.9)
4200m - 6:07.42 - (35.6)
4600m - 6:44.03 - (36.6)
5000m - 7:22.09 - (38.0)
23.96 44.209